Location: Newark
(49.2191°N, 12.6671°E)
Time: 00:46:41
(UTC+00:00)

Courier 1B - Visible Passes

Search period start: 28 January 2020 00:00
Search period end: 07 February 2020 00:00
Orbit: 962 x 1209 km, 28.3° (Epoch: 27 January)

Date Brightness Start Highest point End Pass type
(mag) Time Alt. Az. Time Alt. Az. Time Alt. Az.
28 Jan 10.1 02:47:11 11° SSE 02:47:11 11° SSE 02:47:30 10° SSE visible
28 Jan 9.8 04:34:58 10° SSW 04:36:47 11° SSW 04:38:39 10° S visible
29 Jan 9.8 03:43:41 12° S 03:43:41 12° S 03:45:56 10° SSE visible
